This demonstration page uses our WeatherBlox Daily Observations layout. Learn more.

Left ArrowRight Arrow

39.95238, -75.16362

Hourly Observations for May 10, 2016

Temp ( °F °C ) Dew Point ( °F °C ) Humidity (%) Winds ( mph kmh ) Pressure ( in mb ) Visibility ( mi km ) Precip ( " mm )
12:54 am 00:54 Partly Cloudy 56 13.3 47 8.3 72 72 Calm 30.12 1020 10 16 0.00 0.00
1:54 am 01:54 Mostly Cloudy 54 12.2 47 8.3 77 77 Calm 30.13 1020 10 16 0.00 0.00
2:54 am 02:54 Mostly Cloudy 57 13.9 42 5.6 58 58 NE 14 22 30.15 1021 10 16 0.00 0.00
3:54 am 03:54 Cloudy 57 13.9 37 2.8 47 47 NE 14 22 30.16 1022 10 16 0.00 0.00
4:54 am 04:54 Cloudy 56 13.3 37 2.8 49 49 ENE 6 9 30.20 1023 10 16 0.00 0.00
5:54 am 05:54 Cloudy 54 12.2 38 3.3 55 55 ENE 7 11 30.23 1024 10 16 0.00 0.03
6:54 am 06:54 Cloudy with Light Rain 53 11.7 38 3.3 57 57 NE 7 11 30.25 1024 10 16 0.00 0.03
7:54 am 07:54 Cloudy with Light Rain 51 10.6 38 3.3 61 61 ENE 7 11 30.27 1025 10 16 0.02 0.51
8:54 am 08:54 Cloudy with Light Rain 53 11.7 33 0.6 47 47 E 8 13 30.28 1026 10 16 0.00 0.03
9:54 am 09:54 Cloudy with Light Rain 54 12.2 33 0.6 45 45 NE 6 9 30.29 1026 10 16 0.00 0.03
10:54 am 10:54 Cloudy with Light Rain 54 12.2 31 -0.6 42 42 E 7 11 30.29 1026 10 16 0.00 0.03
11:54 am 11:54 Cloudy 57 13.9 34 1.1 42 42 E 6 9 30.28 1025 10 16 0.00 0.03
12:54 pm 12:54 Cloudy with Light Rain 55 12.8 34 1.1 45 45 Calm 30.28 1025 10 16 0.00 0.03
1:54 pm 13:54 Cloudy with Light Rain 56 13.3 34 1.1 44 44 Calm 30.27 1025 10 16 0.00 0.03
2:54 pm 14:54 Cloudy 58 14.4 35 1.7 42 42 VRB 5 7 30.26 1025 10 16 0.00 0.03
3:54 pm 15:54 Cloudy 59 15 36 2.2 42 42 VRB 3 6 30.24 1024 10 16 0.00 0.00
4:54 pm 16:54 Cloudy 59 15 39 3.9 48 48 Calm 30.22 1023 10 16 0.00 0.03
5:54 pm 17:54 Mostly Cloudy 59 15 38 3.3 46 46 SSW 3 6 30.20 1023 10 16 0.00 0.00
6:54 pm 18:54 Mostly Cloudy 59 15 40 4.4 49 49 WSW 7 11 30.20 1023 10 16 0.00 0.00
7:54 pm 19:54 Mostly Cloudy 57 13.9 42 5.6 58 58 WSW 7 11 30.22 1024 10 16 0.00 0.00
8:54 pm 20:54 Mostly Cloudy 57 13.9 41 5 55 55 SW 7 11 30.22 1023 10 16 0.00 0.00
9:54 pm 21:54 Cloudy 56 13.3 44 6.7 65 65 SW 6 9 30.22 1023 10 16 0.00 0.00
10:54 pm 22:54 Mostly Cloudy 55 12.8 45 7.2 69 69 SW 6 9 30.21 1023 10 16 0.00 0.00
11:54 pm 23:54 Partly Cloudy 55 12.8 44 6.7 67 67 WSW 5 7 30.22 1023 10 16 0.00 0.00

Powered by AerisWeather